sat.trackr.live / text

‹ back to catalog

IRIS

NORAD 39197 · 2013-033A

PAYLOAD ACTIVE UNKNOWN

§ Identity

Operator
Country
US
Launch date
2013-06-28
Launch site
WRAS
Launch vehicle
Mass (kg)
RCS (m²)
1.32

Purposes: science

External: N2YO · Heavens-Above · Gunter

§ Orbital elements

Epoch: 2026-09-12T00:43:57.117216Z

Period
96.90 min
Inclination
97.9281°
Eccentricity
0.0025295
Mean motion
14.86031890 rev/d
Perigee alt
592.7 km
Apogee alt
628.0 km
Semi-major
6,988.5 km
B*
8.0527e-5
RAAN
94.0310°
Arg perigee
37.4049°
Mean anomaly
322.8920°
Rev number
71,327

§ Raw data

IRIS1 39197U 13033A   26255.03052219  .00000652  00000+0  80527-4 0  99992 39197  97.9281  94.0310 0025295  37.4049 322.8920 14.86031890713270

JSON: /api/v1/satellites/39197 · /tle

For live sub-satellite position, see the globe view (requires WebGL).

§ Visibility from observer

Set your observer location to see the next 7 days of passes ≥ 10°. The values pass through the URL so the page stays shareable.

No JS? Fill the form by hand. The geolocation button needs JavaScript.

§ Radio — SatNOGS DB

ModeDescriptionDownlinkUplink
FM S-band telemetry 2.221 GHz

1 transmitter · refreshed weekly from db.satnogs.org